When you browse on this site, cookies collect data to enhance your experience and personalize the content and advertising you see.
Visit our Privacy Policy to learn more. By continuing to use the site, you agree to this use of cookies and data.
  • In Germany
  • List of Countries
  • For 7 days
  • Water Temperature
  • Weather Map
  • Weather Widgets
  • user-avatar
    Login

    Hourly Weather Natitingou

    Today, 31 May, Sunday

    Time Temperature Precipitation Wind Pressure Humidity
    00:00 +25°C° 0 mm 2 mps 717 mmHg 80%
    01:00 +25°C° 0.2 mm 2 mps 717 mmHg 81%
    02:00 +24°C° 0.2 mm 2 mps 717 mmHg 82%
    03:00 +24°C° 0.2 mm 2 mps 717 mmHg 83%
    04:00 +24°C° 0.3 mm 2 mps 717 mmHg 85%
    05:00 +24°C° 0.3 mm 2 mps 718 mmHg 88%
    06:00 +24°C° 0 mm 3 mps 718 mmHg 90%
    07:00 +25°C° 0 mm 3 mps 719 mmHg 85%
    08:00 +27°C° 0 mm 3 mps 719 mmHg 80%
    09:00 +28°C° 0 mm 3 mps 719 mmHg 75%
    10:00 +29°C° 0 mm 3 mps 719 mmHg 69%
    11:00 +31°C° 0 mm 3 mps 719 mmHg 64%
    12:00 +32°C° 0 mm 2 mps 719 mmHg 60%
    13:00 +34°C° 0 mm 2 mps 718 mmHg 56%
    14:00 +35°C° 0 mm 2 mps 718 mmHg 51%
    15:00 +34°C° 0 mm 1 mps 717 mmHg 47%
    16:00 +33°C° 0 mm 1 mps 717 mmHg 51%
    17:00 +32°C° 0 mm 1 mps 717 mmHg 56%
    18:00 +31°C° 0 mm 1 mps 717 mmHg 61%
    19:00 +30°C° 0.1 mm 1 mps 717 mmHg 62%
    20:00 +29°C° 0.1 mm 1 mps 718 mmHg 64%
    21:00 +26°C° 0.1 mm 0 mps 718 mmHg 66%
    22:00 +28°C° 0.5 mm 1 mps 718 mmHg 69%
    23:00 +27°C° 0.5 mm 1 mps 718 mmHg 73%

    Tomorrow, 1 June, Monday

    Time Temperature Precipitation Wind Pressure Humidity
    00:00 +27°C° 0.5 mm 1 mps 718 mmHg 76%
    01:00 +26°C° 0.1 mm 1 mps 718 mmHg 78%
    02:00 +26°C° 0.1 mm 1 mps 718 mmHg 80%
    03:00 +26°C° 0.1 mm 1 mps 718 mmHg 82%
    04:00 +26°C° 0 mm 1 mps 718 mmHg 83%
    05:00 +25°C° 0 mm 1 mps 718 mmHg 85%
    06:00 +25°C° 0 mm 1 mps 718 mmHg 87%
    07:00 +27°C° 0 mm 2 mps 719 mmHg 79%
    08:00 +28°C° 0 mm 3 mps 719 mmHg 72%
    09:00 +30°C° 0 mm 3 mps 719 mmHg 64%
    10:00 +31°C° 0 mm 3 mps 719 mmHg 63%
    11:00 +31°C° 0 mm 3 mps 719 mmHg 61%
    12:00 +33°C° 0 mm 3 mps 719 mmHg 59%
    13:00 +34°C° 0 mm 2 mps 718 mmHg 55%
    14:00 +35°C° 0 mm 2 mps 717 mmHg 51%
    15:00 +36°C° 0 mm 2 mps 717 mmHg 47%
    16:00 +34°C° 2.2 mm 2 mps 716 mmHg 57%
    17:00 +30°C° 2.2 mm 3 mps 716 mmHg 67%
    18:00 +28°C° 2.2 mm 4 mps 716 mmHg 77%
    19:00 +27°C° 0.9 mm 4 mps 716 mmHg 79%
    20:00 +26°C° 0.9 mm 3 mps 717 mmHg 81%
    21:00 +25°C° 0.9 mm 3 mps 718 mmHg 83%
    22:00 +25°C° 0 mm 2 mps 717 mmHg 80%
    23:00 +26°C° 0 mm 2 mps 717 mmHg 77%

    Day after tomorrow, 2 June, Tuesday

    Time Temperature Precipitation Wind Pressure Humidity
    00:00 +26°C° 0 mm 1 mps 717 mmHg 74%
    01:00 +25°C° 0.5 mm 1 mps 717 mmHg 77%
    02:00 +25°C° 0.5 mm 1 mps 717 mmHg 80%
    03:00 +25°C° 0.5 mm 1 mps 717 mmHg 83%
    04:00 +25°C° 0.1 mm 1 mps 718 mmHg 85%
    05:00 +25°C° 0.1 mm 1 mps 718 mmHg 87%
    06:00 +25°C° 0.1 mm 2 mps 718 mmHg 89%
    07:00 +26°C° 0 mm 3 mps 719 mmHg 84%
    08:00 +28°C° 0 mm 4 mps 719 mmHg 79%
    09:00 +29°C° 0 mm 5 mps 719 mmHg 75%
    10:00 +32°C° 0 mm 4 mps 719 mmHg 68%
    11:00 +33°C° 0 mm 4 mps 718 mmHg 62%
    12:00 +35°C° 0 mm 3 mps 718 mmHg 56%
    13:00 +35°C° 0 mm 3 mps 718 mmHg 53%
    14:00 +36°C° 0 mm 2 mps 717 mmHg 50%
    15:00 +36°C° 0 mm 2 mps 716 mmHg 47%
    16:00 +35°C° 0 mm 2 mps 716 mmHg 51%
    17:00 +33°C° 0 mm 1 mps 716 mmHg 56%
    18:00 +31°C° 0 mm 1 mps 716 mmHg 60%
    19:00 +31°C° 0.1 mm 1 mps 716 mmHg 63%
    20:00 +30°C° 0.1 mm 2 mps 717 mmHg 65%
    21:00 +29°C° 0.1 mm 2 mps 717 mmHg 68%
    22:00 +28°C° 0.1 mm 2 mps 717 mmHg 71%
    23:00 +28°C° 0.1 mm 2 mps 717 mmHg 75%

    3 June, Wednesday

    Time Temperature Precipitation Wind Pressure Humidity
    00:00 +27°C° 0.1 mm 2 mps 717 mmHg 78%
    01:00 +27°C° 0 mm 2 mps 717 mmHg 80%
    02:00 +26°C° 0 mm 2 mps 717 mmHg 82%
    03:00 +26°C° 0 mm 2 mps 716 mmHg 85%
    04:00 +26°C° 0 mm 2 mps 716 mmHg 86%
    05:00 +25°C° 0 mm 3 mps 716 mmHg 87%
    06:00 +25°C° 0 mm 3 mps 716 mmHg 88%
    07:00 +27°C° 0 mm 3 mps 717 mmHg 83%
    08:00 +28°C° 0 mm 3 mps 717 mmHg 77%
    09:00 +29°C° 0 mm 4 mps 717 mmHg 72%
    10:00 +32°C° 0 mm 4 mps 717 mmHg 66%
    11:00 +34°C° 0 mm 4 mps 717 mmHg 59%
    12:00 +36°C° 0 mm 3 mps 717 mmHg 53%
    13:00 +36°C° 0 mm 3 mps 716 mmHg 51%
    14:00 +37°C° 0 mm 3 mps 716 mmHg 48%
    15:00 +37°C° 0 mm 3 mps 715 mmHg 46%
    16:00 +36°C° 0 mm 2 mps 715 mmHg 50%
    17:00 +35°C° 0 mm 2 mps 715 mmHg 54%
    18:00 +32°C° 0 mm 2 mps 715 mmHg 59%
    19:00 +31°C° 0.2 mm 2 mps 716 mmHg 62%
    20:00 +30°C° 0.2 mm 2 mps 716 mmHg 66%
    21:00 +29°C° 0.2 mm 2 mps 716 mmHg 69%
    22:00 +29°C° 0 mm 2 mps 716 mmHg 72%
    23:00 +28°C° 0 mm 2 mps 716 mmHg 75%

    4 June, Thursday

    Time Temperature Precipitation Wind Pressure Humidity
    00:00 +28°C° 0 mm 2 mps 716 mmHg 77%
    01:00 +27°C° 0.1 mm 2 mps 716 mmHg 80%
    02:00 +27°C° 0.1 mm 2 mps 716 mmHg 83%
    03:00 +26°C° 0.1 mm 2 mps 716 mmHg 85%
    04:00 +26°C° 0.7 mm 2 mps 716 mmHg 87%
    05:00 +26°C° 0.7 mm 2 mps 717 mmHg 89%
    06:00 +25°C° 0.7 mm 1 mps 717 mmHg 91%
    07:00 +26°C° 0.3 mm 1 mps 718 mmHg 89%
    08:00 +26°C° 0.3 mm 2 mps 718 mmHg 87%
    09:00 +26°C° 0.3 mm 2 mps 719 mmHg 85%
    10:00 +28°C° 0 mm 3 mps 718 mmHg 80%
    11:00 +29°C° 0 mm 3 mps 718 mmHg 75%
    12:00 +30°C° 0 mm 4 mps 717 mmHg 69%
    13:00 +32°C° 0 mm 4 mps 717 mmHg 66%
    14:00 +33°C° 0 mm 3 mps 716 mmHg 63%
    15:00 +34°C° 0 mm 3 mps 715 mmHg 60%
    16:00 +33°C° 0 mm 3 mps 716 mmHg 63%
    17:00 +31°C° 0 mm 2 mps 716 mmHg 66%
    18:00 +30°C° 0 mm 1 mps 716 mmHg 70%
    19:00 +29°C° 0 mm 1 mps 716 mmHg 72%
    20:00 +29°C° 0 mm 1 mps 717 mmHg 73%
    21:00 +28°C° 0 mm 1 mps 717 mmHg 75%
    22:00 +28°C° 0 mm 1 mps 717 mmHg 77%
    23:00 +27°C° 0 mm 1 mps 717 mmHg 78%

    5 June, Friday

    Time Temperature Precipitation Wind Pressure Humidity
    00:00 +27°C° 0 mm 1 mps 717 mmHg 79%
    01:00 +27°C° 0.1 mm 1 mps 717 mmHg 81%
    02:00 +26°C° 0.1 mm 1 mps 717 mmHg 84%
    03:00 +26°C° 0.1 mm 1 mps 717 mmHg 86%
    04:00 +26°C° 0 mm 1 mps 717 mmHg 87%
    05:00 +25°C° 0 mm 2 mps 717 mmHg 88%
    06:00 +25°C° 0 mm 2 mps 717 mmHg 89%
    07:00 +27°C° 0 mm 2 mps 718 mmHg 83%
    08:00 +28°C° 0 mm 3 mps 719 mmHg 77%
    09:00 +29°C° 0 mm 4 mps 719 mmHg 72%
    10:00 +31°C° 0 mm 3 mps 719 mmHg 66%
    11:00 +33°C° 0 mm 3 mps 718 mmHg 59%
    12:00 +35°C° 0 mm 2 mps 718 mmHg 53%
    13:00 +35°C° 0 mm 2 mps 717 mmHg 51%
    14:00 +35°C° 0 mm 2 mps 717 mmHg 49%
    15:00 +36°C° 0 mm 2 mps 716 mmHg 47%
    16:00 +35°C° 0 mm 2 mps 716 mmHg 51%
    17:00 +32°C° 0 mm 1 mps 716 mmHg 54%
    18:00 +31°C° 0 mm 1 mps 716 mmHg 58%
    19:00 +30°C° 0 mm 1 mps 716 mmHg 61%
    20:00 +30°C° 0 mm 1 mps 717 mmHg 64%
    21:00 +29°C° 0 mm 1 mps 717 mmHg 68%
    22:00 +28°C° 0 mm 1 mps 717 mmHg 68%
    23:00 +26°C° 0 mm 0 mps 717 mmHg 69%
    Show more